• In Italy
  • List of Countries
  • For 7 days
  • Water Temperature
  • Satellite Maps
  • Weather Map
  • Weather Widgets
  • user-avatar
    Login

    Hourly Weather Djelfa

    Today, 20 May, Sunday

    Time Temperature Precipitation Wind Pressure Humidity
    00:00 +15°C° 0 mm 2 mps 662 mmHg 80%
    01:00 +14°C° 0.1 mm 2 mps 662 mmHg 81%
    02:00 +14°C° 0.1 mm 2 mps 661 mmHg 82%
    03:00 +14°C° 0.1 mm 2 mps 661 mmHg 84%
    04:00 +14°C° 0 mm 2 mps 661 mmHg 84%
    05:00 +13°C° 0 mm 2 mps 661 mmHg 84%
    06:00 +14°C° 0 mm 2 mps 661 mmHg 83%
    07:00 +14°C° 0 mm 2 mps 661 mmHg 78%
    08:00 +15°C° 0 mm 2 mps 662 mmHg 73%
    09:00 +16°C° 0 mm 2 mps 662 mmHg 68%
    10:00 +17°C° 0.1 mm 2 mps 662 mmHg 63%
    11:00 +18°C° 0.1 mm 2 mps 662 mmHg 58%
    12:00 +18°C° 0 mm 2 mps 662 mmHg 55%
    13:00 +19°C° 0.2 mm 2 mps 662 mmHg 52%
    14:00 +19°C° 0.2 mm 3 mps 662 mmHg 49%
    15:00 +20°C° 0.2 mm 3 mps 661 mmHg 45%
    16:00 +20°C° 0.2 mm 3 mps 661 mmHg 45%
    17:00 +20°C° 0.2 mm 4 mps 661 mmHg 45%
    18:00 +19°C° 0.2 mm 4 mps 661 mmHg 44%
    19:00 +19°C° 0.1 mm 4 mps 661 mmHg 48%
    20:00 +18°C° 0.1 mm 4 mps 661 mmHg 53%
    21:00 +17°C° 0.1 mm 4 mps 662 mmHg 57%
    22:00 +17°C° 0 mm 4 mps 661 mmHg 61%
    23:00 +15°C° 0 mm 4 mps 661 mmHg 66%

    Tomorrow, 21 May, Monday

    Time Temperature Precipitation Wind Pressure Humidity
    00:00 +14°C° 0 mm 4 mps 661 mmHg 71%
    01:00 +14°C° 0 mm 3 mps 661 mmHg 72%
    02:00 +14°C° 0 mm 2 mps 661 mmHg 73%
    03:00 +14°C° 0 mm 1 mps 661 mmHg 75%
    04:00 +14°C° 0 mm 1 mps 661 mmHg 73%
    05:00 +14°C° 0 mm 1 mps 661 mmHg 72%
    06:00 +14°C° 0 mm 1 mps 661 mmHg 70%
    07:00 +15°C° 0 mm 1 mps 662 mmHg 63%
    08:00 +16°C° 0 mm 1 mps 662 mmHg 56%
    09:00 +18°C° 0 mm 1 mps 662 mmHg 50%
    10:00 +18°C° 0 mm 2 mps 662 mmHg 45%
    11:00 +19°C° 0 mm 2 mps 662 mmHg 41%
    12:00 +20°C° 0 mm 3 mps 662 mmHg 36%
    13:00 +20°C° 0 mm 3 mps 662 mmHg 35%
    14:00 +21°C° 0 mm 3 mps 662 mmHg 33%
    15:00 +21°C° 0 mm 3 mps 662 mmHg 32%
    16:00 +21°C° 0 mm 3 mps 662 mmHg 32%
    17:00 +21°C° 0 mm 4 mps 662 mmHg 33%
    18:00 +21°C° 0 mm 4 mps 662 mmHg 33%
    19:00 +20°C° 0 mm 5 mps 662 mmHg 38%
    20:00 +19°C° 0 mm 6 mps 663 mmHg 43%
    21:00 +16°C° 0 mm 8 mps 663 mmHg 47%
    22:00 +16°C° 0.1 mm 6 mps 663 mmHg 50%
    23:00 +15°C° 0.1 mm 4 mps 663 mmHg 53%

    Day after tomorrow, 22 May, Tuesday

    Time Temperature Precipitation Wind Pressure Humidity
    00:00 +16°C° 0.1 mm 3 mps 662 mmHg 56%
    01:00 +16°C° 0.1 mm 3 mps 662 mmHg 58%
    02:00 +15°C° 0.1 mm 2 mps 662 mmHg 60%
    03:00 +15°C° 0.1 mm 2 mps 662 mmHg 62%
    04:00 +15°C° 0 mm 2 mps 662 mmHg 62%
    05:00 +15°C° 0 mm 2 mps 662 mmHg 62%
    06:00 +15°C° 0 mm 2 mps 662 mmHg 61%
    07:00 +16°C° 0 mm 2 mps 663 mmHg 55%
    08:00 +18°C° 0 mm 3 mps 663 mmHg 49%
    09:00 +19°C° 0 mm 3 mps 664 mmHg 43%
    10:00 +20°C° 0 mm 3 mps 664 mmHg 39%
    11:00 +21°C° 0 mm 3 mps 664 mmHg 35%
    12:00 +23°C° 0 mm 2 mps 664 mmHg 30%
    13:00 +22°C° 0 mm 3 mps 664 mmHg 28%
    14:00 +24°C° 0 mm 3 mps 664 mmHg 26%
    15:00 +24°C° 0 mm 3 mps 664 mmHg 24%
    16:00 +24°C° 0 mm 3 mps 665 mmHg 24%
    17:00 +24°C° 0 mm 3 mps 665 mmHg 25%
    18:00 +24°C° 0 mm 3 mps 665 mmHg 25%
    19:00 +22°C° 0 mm 3 mps 665 mmHg 28%
    20:00 +21°C° 0 mm 3 mps 666 mmHg 31%
    21:00 +20°C° 0 mm 2 mps 666 mmHg 33%
    22:00 +20°C° 0 mm 2 mps 666 mmHg 37%
    23:00 +19°C° 0 mm 2 mps 666 mmHg 40%

    23 May, Wednesday

    Time Temperature Precipitation Wind Pressure Humidity
    00:00 +18°C° 0 mm 2 mps 666 mmHg 44%
    01:00 +18°C° 0 mm 2 mps 666 mmHg 47%
    02:00 +17°C° 0 mm 2 mps 665 mmHg 49%
    03:00 +18°C° 0 mm 1 mps 665 mmHg 52%
    04:00 +18°C° 0 mm 1 mps 666 mmHg 51%
    05:00 +19°C° 0 mm 1 mps 666 mmHg 50%
    06:00 +19°C° 0 mm 1 mps 666 mmHg 49%
    07:00 +20°C° 0 mm 2 mps 667 mmHg 43%
    08:00 +21°C° 0 mm 3 mps 667 mmHg 37%
    09:00 +23°C° 0 mm 4 mps 668 mmHg 31%
    10:00 +25°C° 0 mm 4 mps 668 mmHg 30%
    11:00 +26°C° 0 mm 4 mps 668 mmHg 28%
    12:00 +27°C° 0 mm 4 mps 668 mmHg 27%
    13:00 +27°C° 0 mm 4 mps 668 mmHg 26%
    14:00 +27°C° 0 mm 3 mps 668 mmHg 25%
    15:00 +28°C° 0 mm 3 mps 667 mmHg 24%
    16:00 +28°C° 0 mm 3 mps 667 mmHg 25%
    17:00 +28°C° 0 mm 3 mps 667 mmHg 25%
    18:00 +27°C° 0 mm 3 mps 667 mmHg 26%
    19:00 +27°C° 0 mm 4 mps 667 mmHg 28%
    20:00 +26°C° 0 mm 4 mps 668 mmHg 29%
    21:00 +25°C° 0 mm 4 mps 668 mmHg 31%
    22:00 +23°C° 0 mm 4 mps 668 mmHg 34%
    23:00 +22°C° 0 mm 5 mps 667 mmHg 38%

    24 May, Thursday

    Time Temperature Precipitation Wind Pressure Humidity
    00:00 +21°C° 0 mm 5 mps 667 mmHg 41%
    01:00 +21°C° 0 mm 4 mps 667 mmHg 43%
    02:00 +20°C° 0 mm 4 mps 666 mmHg 45%
    03:00 +20°C° 0 mm 3 mps 666 mmHg 46%
    04:00 +20°C° 0 mm 4 mps 666 mmHg 46%
    05:00 +20°C° 0 mm 4 mps 666 mmHg 45%
    06:00 +20°C° 0 mm 4 mps 666 mmHg 45%
    07:00 +22°C° 0 mm 5 mps 667 mmHg 40%
    08:00 +23°C° 0 mm 6 mps 667 mmHg 36%
    09:00 +26°C° 0 mm 8 mps 668 mmHg 31%
    10:00 +27°C° 0 mm 8 mps 668 mmHg 28%
    11:00 +28°C° 0 mm 7 mps 668 mmHg 26%
    12:00 +30°C° 0 mm 7 mps 668 mmHg 23%
    13:00 +30°C° 0 mm 7 mps 667 mmHg 22%
    14:00 +30°C° 0 mm 7 mps 667 mmHg 21%
    15:00 +32°C° 0 mm 7 mps 667 mmHg 19%
    16:00 +30°C° 0 mm 7 mps 666 mmHg 21%
    17:00 +30°C° 0 mm 7 mps 666 mmHg 23%
    18:00 +29°C° 0 mm 7 mps 666 mmHg 24%
    19:00 +28°C° 0 mm 8 mps 666 mmHg 26%
    20:00 +27°C° 0 mm 8 mps 666 mmHg 29%
    21:00 +26°C° 0 mm 8 mps 666 mmHg 31%
    22:00 +24°C° 0 mm 8 mps 666 mmHg 32%
    23:00 +23°C° 0 mm 7 mps 665 mmHg 33%

    25 May, Friday

    Time Temperature Precipitation Wind Pressure Humidity
    00:00 +23°C° 0 mm 7 mps 665 mmHg 35%
    01:00 +22°C° 0 mm 7 mps 665 mmHg 35%
    02:00 +22°C° 0 mm 7 mps 665 mmHg 36%
    03:00 +21°C° 0 mm 7 mps 664 mmHg 36%
    04:00 +22°C° 0 mm 7 mps 665 mmHg 36%
    05:00 +22°C° 0 mm 7 mps 665 mmHg 36%
    06:00 +22°C° 0 mm 8 mps 665 mmHg 36%
    07:00 +23°C° 0 mm 9 mps 666 mmHg 32%
    08:00 +26°C° 0 mm 10 mps 666 mmHg 27%
    09:00 +28°C° 0 mm 11 mps 666 mmHg 22%
    10:00 +29°C° 0 mm 11 mps 666 mmHg 21%
    11:00 +31°C° 0 mm 11 mps 666 mmHg 19%
    12:00 +32°C° 0 mm 11 mps 666 mmHg 18%
    13:00 +33°C° 0 mm 11 mps 666 mmHg 17%
    14:00 +33°C° 0 mm 10 mps 666 mmHg 17%
    15:00 +33°C° 0 mm 10 mps 665 mmHg 16%
    16:00 +33°C° 0 mm 9 mps 665 mmHg 18%
    17:00 +32°C° 0 mm 9 mps 665 mmHg 19%
    18:00 +32°C° 0 mm 8 mps 664 mmHg 20%
    19:00 +29°C° 0.1 mm 8 mps 664 mmHg 23%
    20:00 +28°C° 0.1 mm 7 mps 665 mmHg 25%
    21:00 +27°C° 0.1 mm 7 mps 665 mmHg 28%
    22:00 +26°C° 0.1 mm 7 mps 664 mmHg 28%
    23:00 +26°C° 0.1 mm 8 mps 664 mmHg 29%
    Show more